Погода в Тырнэвени

Румыния     46°19′58″N   24°17′13″E
темп.,
°C
ветер,
м/с
пор.,
м/с
влажн.,
%
обл.,
%
осадки,
мм/ч
давл.,
гПа
погр.,
м
11 апреля, вс
вс1100:00+6юв11575 0.0 102410
03:00+4ююв11645 0.0 102410
06:00+3вюв11695 0.0 102510
09:00+7юв12595 0.0 1025192
12:00+13вюв34460 0.0 1024872
15:00+16юв33394 0.0 10221661
18:00+16ююв334224 0.0 10211672
21:00+10ююв32615 0.0 102224
12 апреля, пн
пн1200:00+7юв22675 0.0 102319
03:00+5юв22735 0.0 102413
06:00+4юв117755 0.0 102410
09:00+8юв126476 0.0 1023209
12:00+14ююв22495 0.0 1022733
15:00+18юв11435 0.0 10201127
18:00+18в11448 0.0 10181076
21:00+12всв11597 0.0 101910
13 апреля, вт
вт1300:00+11вюв1164100 0.0 101810
03:00+9вюв11706 0.0 101810
06:00+7вюв1176100 0.0 101810
09:00+11вюв126688 0.0 1017195
12:00+17вюв23495 0.0 1015848
15:00+20вюв223921 0.0 10131809
18:00+19юз2244100 0.0 1011917
21:00+11зсз4788100 0.4 1014356
14 апреля, ср
ср1400:00+10ссз4894100 3.1 1013370
03:00+9с2693100 4.4 1012403
06:00+8с2794100 1.8 1011366
09:00+7з4595100 4.4 1011403
12:00+5зюз5795100 5.1 1012321
15:00+4зюз5795100 6.8 1012321
18:00+3зюз4696100 1.6 1013327
21:00+1зюз2499100 6.1 1015175
15 апреля, чт
чт1500:00+1зюз25100100 3.7 1016207
03:00+1юз14100100 5.6 1016229
06:00+1зюз14100100 1.1 1017224
09:00+1юв01100100 2.1 1018121
12:00+2юв11100100 0.4 1018143
15:00+3в1198100 0.6 1018290
18:00+3з0299100 0.6 1018543
21:00+2зсз12100100 1.6 1019494